Zurück zum Katalog

METEOR 2-17 DEB

AktivPO
NORAD 35369·DEBRIS·🇷🇺 Russia

Gestartet Jan 30, 1988 von Plesetsk Cosmodrome

Loading…

Nächste Überflüge (nächste 24 Stunden)

TLE

AktuellSource: Space-Track

Epoche: Sep 14, 2026, 14:01 UTC

1 35369U 88005AD  26257.58410016  .00000891  00000-0  59915-3 0  9994
2 35369  82.5252 197.8971 0018327  68.1284  53.5973 13.99578839758402

Verfolge METEOR 2-17 DEB in Echtzeit mit AllMySat

Download on the App Store